Location: Smithsonian NASM Public Observatory
(38.8879°N, 77.0185°W)
Time: 09:59:31
(UTC-04:00)

Daily predictions for brighter satellites

Satellite Brightness Start Highest point End
(mag) Time Altitude Azimuth Time Altitude Azimuth Time Altitude Azimuth
Iridium 4 Rocket 4.1 20:58:19 10° SSE 21:03:35 43° E 21:08:30 10° NNE
Cosmos 1932 4.5 21:01:15 10° NNW 21:07:30 80° ENE 21:13:41 10° SE
Meteor 1-16 Rocket 4.3 21:03:16 10° N 21:08:50 66° E 21:14:33 10° SSE
Cosmos 1953 Rocket 4.2 21:05:01 10° SSE 21:09:00 36° E 21:13:02 10° NNE
Cosmos 1758 Rocket 3.8 21:09:46 10° S 21:14:06 53° E 21:18:24 10° NNE
Cosmos 1437 4.0 21:14:32 10° NNE 21:17:15 25° ENE 21:19:55 10° SE
Cosmos 1707 4.0 21:14:44 10° SSW 21:18:25 44° W 21:22:07 10° N
USA 215 3.4 21:12:06 10° SE 21:18:39 78° NE 21:25:13 10° NW
Cosmos 1674 4.1 21:15:59 10° SE 21:18:54 21° E 21:21:50 10° NE
Cosmos 1939 Rocket 4.2 21:19:47 10° SSW 21:23:38 40° W 21:27:26 10° NNW
Resurs 01 Rocket 2.2 21:23:32 10° S 21:27:53 60° W 21:32:17 10° NNW
Cosmos 1048 Rocket 4.3 21:23:00 10° SSW 21:28:18 78° WNW 21:33:42 10° NNE
Cosmos 1726 4.0 21:28:02 10° NNE 21:30:34 17° ENE 21:32:39 12° ESE
ERS-2 2.4 21:27:05 10° S 21:30:43 68° WSW 21:34:23 10° NNW
USA 186 4.2 21:28:34 10° SSW 21:31:04 21° W 21:33:28 10° NW
OAO 3 Rocket 3.4 21:28:11 10° W 21:33:02 55° S 21:37:43 11° ESE
Cosmos 921 Rocket 3.9 21:29:05 10° N 21:33:16 37° ENE 21:36:46 14° SE
Cosmos 1825 Rocket 4.0 21:33:59 10° SSW 21:38:25 68° W 21:42:52 10° N
SL-8 R/B 4.0 21:35:21 10° WSW 21:40:11 74° NNW 21:45:01 10° NE
Cosmos 2278 Rocket 3.3 21:37:10 12° SSE 21:41:08 23° E 21:45:30 10° NE
ARGOS 3.3 21:36:17 11° SSE 21:41:31 63° ENE 21:46:54 10° N
Cosmos 1315 Rocket 3.3 21:39:19 10° SSW 21:43:19 63° W 21:47:25 10° N
Cosmos 1461 4.2 21:39:47 10° SSE 21:43:26 24° ESE 21:47:13 10° ENE
MetOp-A 4.2 21:42:46 12° SSE 21:47:43 69° ENE 21:53:03 10° N
Spot 2 Rocket 4.1 21:43:46 10° S 21:48:41 55° W 21:53:40 10° NNW
Cosmos 1844 Rocket 2.9 21:51:58 10° SSW 21:57:38 77° WNW 22:03:19 10° NNE
Cosmos 220 Rocket 4.4 21:54:35 14° SSE 21:57:47 40° ESE 22:01:44 10° NE
COSMOS 2406 3.5 21:54:51 10° NNW 22:00:31 54° ENE 22:04:22 20° SE
Cosmos 1844 3.7 21:58:16 10° SSW 22:03:57 88° WNW 22:09:46 10° NNE
SL-08 RB Rocket 3.7 22:01:15 17° SSE 22:04:49 82° ENE 22:09:30 10° N
Cosmos 1238 Rocket 3.7 22:04:58 10° SSW 22:07:40 33° W 22:10:29 10° NNW
KORONAS-FOTON 3.8 22:05:23 17° S 22:08:14 69° E 22:12:08 10° NNE
ATLAS 3B R/B 2.9 22:01:55 10° NNW 22:08:25 55° NE 22:12:52 20° ESE
SPOT 5 3.6 22:06:25 21° SE 22:09:23 43° ENE 22:14:22 10° N
Cosmos 1110 Rocket 3.9 22:04:56 10° NNW 22:10:08 83° ENE 22:13:32 22° SSE
SL-14 R/B 4.3 22:09:27 25° ESE 22:10:25 28° E 22:13:50 10° NNE
USA 238 DEB 3.8 22:05:29 10° NNW 22:12:41 78° NE 22:17:40 22° SE
USA 238 3.8 22:05:36 10° NNW 22:12:47 78° ENE 22:17:45 22° SE
Cosmos 2084 3.9 22:10:24 10° NW 22:14:04 45° WSW 22:16:07 23° S
ATLAS 5 CENTAUR R/B 2.5 22:14:23 26° SE 22:14:54 26° ESE 22:18:48 10° ENE
Lacrosse 5 4.1 22:11:28 10° W 22:15:50 28° NW 22:20:12 10° NNE
Cosmos 1346 Rocket 3.5 22:12:06 10° NNW 22:16:01 53° W 22:19:03 16° SSW
Cosmos-2242 3.6 22:13:32 10° NNW 22:17:51 55° W 22:21:19 15° SSW
S3M 4.0 22:15:36 14° S 22:21:08 74° E 22:27:32 10° N
Cosmos 1331 Rocket 4.0 22:17:19 10° NNW 22:22:33 86° WSW 22:25:39 25° SSE
SPOT 1/Viking Rocket 3.8 22:20:08 26° SE 22:22:51 55° ENE 22:27:52 10° N
H-2A R/B 2.4 22:18:45 17° S 22:22:51 67° WSW 22:28:16 10° NNW
Cosmos 494 Rocket 4.5 22:17:49 10° SSW 22:22:59 62° WNW 22:28:14 10° NNE
NOSS 3-2 (A) 4.3 22:16:45 10° NNW 22:24:18 64° NE 22:29:42 23° SE
Helios 1A 3.1 22:28:25 35° SE 22:30:00 60° ENE 22:34:10 10° N
Cosmos 2082 Rocket 3.9 22:25:38 10° N 22:30:01 22° NE 22:33:00 15° E
Cosmos 1833 Rocket 4.2 22:26:19 10° N 22:30:51 25° NE 22:33:38 17° E
Cosmos 1626 3.5 22:31:41 24° E 22:31:41 24° E 22:34:33 10° NE
Helios 1B rocket 2.8 22:28:54 10° NNE 22:32:50 44° E 22:33:41 39° SE
Cosmos 1908 4.1 22:32:17 10° NNW 22:35:59 45° W 22:38:07 22° SSW
Centaur D-1AR AC-36 4.4 22:32:56 10° WSW 22:36:48 13° SW 22:38:59 11° SSW
Cosmos 1842 Rocket 3.4 22:33:08 10° N 22:37:31 83° E 22:39:11 37° SSE
ATLAS 2AS CENTAUR R/B 4.1 22:30:51 10° WSW 22:38:22 48° NW 22:46:11 10° NNE
CZ-2C R/B 3.7 22:34:27 10° NE 22:38:55 26° E 22:39:35 25° ESE
Cosmos 1340 2.8 22:37:33 10° NNW 22:41:20 69° W 22:42:33 40° SSW
Cosmos 1553 Rocket 4.3 22:37:50 10° SSW 22:43:50 63° W 22:49:53 10° N
Landsat 7 3.8 22:42:27 38° SSE 22:44:15 73° ENE 22:49:01 10° N
SEDSat Delta rocket 4.3 22:40:10 10° SW 22:43:33 26° SSW 22:43:33 26° SSW
ERS-1 Rocket 3.6 22:46:45 23° SSW 22:49:40 49° W 22:54:34 10° NNW
NOSS 3-2 (C) 4.2 22:42:35 10° NNW 22:50:12 67° NE 22:54:47 29° SE
Cosmos 1302 Rocket 4.0 22:46:14 10° NNW 22:51:33 86° WSW 22:53:36 39° SSE
Cosmos 883 Rocket 4.4 22:55:18 31° S 22:58:28 79° E 23:04:43 10° N
Cosmos 1455 4.1 22:56:46 10° NNE 22:59:05 18° ENE 22:59:05 18° ENE
Cosmos 1300 2.6 22:57:10 10° N 23:00:59 79° W 23:01:28 65° SSW
Cosmos 2251 Rocket 4.1 22:56:56 10° SSW 23:02:10 56° WNW 23:07:24 10° N
Terra 1.8 23:02:30 50° SE 23:03:41 74° ENE 23:08:27 10° N
Cosmos 1386 Rocket 4.5 22:58:30 10° N 23:04:33 75° W 23:07:22 33° S
Cosmos 2315 Rocket 4.0 23:02:11 37° SSE 23:04:45 67° E 23:11:03 10° NNE
RESURS DK-1 3.2 23:06:04 36° ENE 23:06:04 36° ENE 23:09:08 10° NE
Cosmos 1726 3.9 23:02:39 10° NNW 23:05:50 26° W 23:07:13 21° SW
Okean 3 Rocket 3.6 23:06:52 57° ESE 23:07:12 58° E 23:11:30 10° NNE
Cosmos 2221 2.4 23:03:08 10° N 23:07:28 88° W 23:08:10 62° S
H-2A R/B 3.8 23:09:34 32° SSE 23:11:24 35° SE 23:39:02 10° E
NOSS 2-2 (E) 3.5 23:11:46 37° SW 23:13:10 69° NW 23:17:28 10° NNE
NOSS 3-4 (A) 3.8 23:09:25 10° SW 23:15:31 66° NW 23:21:54 10° NNE
CENTAUR R/B 3.6 23:07:47 10° NNW 23:15:34 53° NE 23:20:13 27° ESE
NOSS 3-4 (C) 3.8 23:09:30 10° SW 23:15:36 66° NW 23:21:59 10° NNE
Meteor 1-29 3.2 23:12:28 10° N 23:15:42 64° WNW 23:15:42 64° WNW
OAO 3 Rocket 4.1 23:11:44 10° W 23:15:31 34° SW 23:15:31 34° SW
CZ-2C R/B 3.3 23:19:33 47° SSE 23:21:23 89° WSW 23:27:11 10° NNW
Cosmos 1328 3.7 23:21:27 80° WSW 23:21:32 81° W 23:25:30 10° N
Meteor 1-11 4.3 23:20:56 49° SE 23:22:09 61° E 23:27:51 10° NNE
Cosmos 2278 Rocket 3.1 23:19:26 10° SW 23:24:51 46° WNW 23:30:19 10° N
Spot 4 4.1 23:33:05 52° E 23:33:34 54° ENE 23:38:20 10° N
IGS 5A 4.3 23:33:19 37° WSW 23:33:44 38° W 23:37:39 10° NNW
ATLAS 3B CENTAUR R/B 3.7 23:20:25 10° WSW 23:34:22 38° S 23:35:03 38° S
Cosmos 407 Rocket 4.1 23:35:40 40° E 23:35:40 40° E 23:40:03 10° NNE
Cosmos 1190 Rocket 4.1 23:49:20 57° E 23:49:20 57° E 23:54:17 10° NNE
Cosmos 405 Rocket 4.2 23:49:19 10° N 23:51:43 29° NE 23:51:43 29° NE
Cosmos 2369 Rocket 3.7 23:54:56 21° E 23:54:56 21° E 23:58:09 10° NE
